Temperature
17 17 17 17 16 16 16 16 16 16 16 16 16 16 16 16 16 16 16 16 16 16 16 16 16 16 16 15 15 15 15 15 15 15 15 14 14 14
17 17 17 16 16 16 16 16 16 16 15 16 16 16 16 16 16 16 16 16 16 16 16 16 16 15 15 15 15 15 15 15 15 14 14 14 14 14
16 16 16 16 16 16 16 16 16 15 15 15 15 15 15 15 15 15 15 15 15 15 15 15 15 15 15 15 15 15 15 14 14 14 14 14 14 14
16 16 16 16 16 16 16 16 15 15 15 15 15 15 15 15 15 15 15 15 15 15 15 15 14 14 14 14 14 14 14 14 14 14 14 14 14 14
16 16 16 16 16 15 15 15 15 15 15 15 14 14 14 14 14 14 14 14 14 14 14 14 14 14 14 14 13 13 14 14 13 13 13 13 13 13
15 15 15 15 15 15 15 15 15 14 14 14 14 14 14 14 14 14 14 14 13 13 13 13 13 13 13 13 13 13 13 13 13 13 13 13 13 13
15 15 14 14 14 14 14 14 14 14 14 13 13 13 13 13 13 13 13 13 13 12 12 12 12 12 12 12 12 12 12 12 12 12 12 12 12 12
14 14 14 14 14 14 14 13 13 13 13 13 13 12 12 12 12 12 12 12 12 12 11 11 11 11 11 11 11 11 11 11 11 11 11 11 11 11
14 14 13 13 13 13 13 13 13 12 12 12 12 12 11 11 11 12 11 11 11 11 11 11 11 10 10 10 10 10 10 10 10 10 10 10 10 11
13 13 13 13 13 13 13 12 12 12 12 12 11 11 11 11 11 11 11 11 10 10 10 10 10 10 9 10 10 10 10 10 10 10 10 10 10 10
13 12 12 12 12 12 12 12 12 11 11 11 11 11 10 10 10 10 10 10 10 10 9 9 9 9 9 9 9 9 9 9 9 9 9 9 9 9
12 12 11 11 11 11 11 11 11 11 10 10 10 10 10 10 10 10 10 9 9 9 9 9 9 8 8 8 8 8 8 8 8 8 8 8 8 8
12 11 11 11 11 11 11 11 10 10 10 10 10 10 9 9 9 9 9 9 9 8 8 8 8 8 8 8 8 8 8 8 8 7 7 7 7 7
11 10 10 10 10 10 10 10 9 10 10 9 9 9 9 8 8 8 8 8 8 8 8 8 8 7 7 7 7 7 7 7 7 7 7 7 7 7
10 10 10 10 10 9 9 9 9 9 9 9 8 8 8 8 8 8 8 7 7 7 7 7 7 7 7 7 7 7 7 7 7 6 6 6 6 6
10 9 9 9 9 9 9 9 8 8 8 8 8 7 7 7 7 7 7 7 7 7 7 7 7 6 6 6 6 6 6 6 6 6 6 6 6 5
9 9 9 9 9 8 8 8 8 8 7 7 7 7 7 7 7 7 6 6 6 6 6 6 6 6 6 6 6 6 6 5 5 5 5 5 5 5
9 9 8 8 8 8 8 7 7 7 7 7 6 6 6 6 6 6 6 6 6 6 6 6 6 6 6 6 5 5 5 5 5 5 5 5 4 5
9 8 8 7 7 7 7 7 7 6 6 6 6 6 6 6 6 6 5 5 5 5 5 5 5 5 4 4 5 5 4 4 4 4 4 4 4 4
8 7 7 7 7 6 6 6 6 6 6 6 6 5 5 5 5 5 5 5 5 5 5 5 4 4 4 4 4 4 4 4 4 4 4 4 4 4
7 7 7 6 6 6 6 6 6 5 5 5 5 5 5 5 5 5 5 5 4 4 4 4 4 4 4 4 4 4 4 4 4 4 3 3 3 3
7 6 6 6 6 6 5 5 5 5 5 5 5 4 4 4 4 4 4 4 4 4 4 4 4 4 4 4 3 3 3 3 3 3 3 3 3 3
6 6 6 6 5 5 5 5 5 5 5 4 4 4 4 4 4 4 4 4 4 4 4 3 3 3 3 3 3 3 3 3 3 3 3 3 3 3
Wind_Speed
3 3 3 3 2 3 3 3 3 3 3 2 2 3 3 3 3 3 4 5 5 7 8 9 9 9 9 9 9 10 11 11 11 11 12 13 13 14
2 2 2 2 2 2 3 3 3 3 3 2 1 2 3 4 5 3 3 3 3 4 5 6 6 7 7 7 8 8 8 9 9 10 10 11 12 12
1 1 2 2 2 2 2 2 2 2 3 3 2 2 3 4 4 4 4 3 4 3 2 2 2 3 4 5 5 6 6 6 7 7 8 9 10 11
1 0 1 1 1 1 1 1 1 1 2 2 2 3 3 4 4 4 4 4 4 6 6 6 5 2 1 1 2 3 4 5 5 6 7 8 9 9
1 1 1 1 1 1 1 1 1 1 0 0 2 2 2 3 4 4 4 4 5 7 8 7 7 7 6 5 4 2 1 3 4 5 6 7 7 8
3 3 3 2 1 2 2 1 2 2 2 2 2 2 3 3 3 4 4 4 4 6 7 7 8 8 8 7 6 5 4 3 3 4 5 5 6 6
4 4 4 5 6 4 3 3 4 3 3 3 3 3 3 3 3 3 3 3 3 4 4 5 5 6 7 8 8 6 5 4 4 3 4 4 5 5
4 4 4 5 7 8 8 8 6 4 3 3 2 2 3 3 3 2 2 2 2 4 3 3 4 4 5 7 9 9 8 6 6 5 5 4 4 4
5 5 5 6 7 6 8 10 10 9 6 3 3 2 2 3 3 3 2 2 2 3 2 3 4 3 4 7 9 9 9 8 7 7 6 6 6 5
7 6 6 6 6 6 7 8 9 8 7 5 4 4 4 4 2 2 1 1 2 3 3 3 4 3 4 6 9 10 9 9 9 8 7 7 7 6
7 8 7 7 9 9 8 8 7 7 10 12 12 11 12 12 8 4 4 3 3 3 4 3 3 3 2 3 6 9 10 9 9 8 9 9 8 6
7 8 11 10 10 10 7 7 7 5 6 8 10 11 11 11 12 7 3 3 2 2 4 3 3 3 2 2 4 6 7 8 8 8 8 8 8 6
7 6 7 12 12 11 9 7 6 5 6 7 7 7 7 7 8 8 6 3 3 2 4 3 2 3 2 3 3 4 5 5 6 6 7 8 8 6
6 6 7 11 12 12 9 9 9 8 6 6 6 6 6 6 6 7 8 7 5 3 4 3 2 2 2 3 3 4 4 5 5 5 6 7 7 6
7 10 10 11 11 10 12 12 9 7 6 6 6 5 4 5 6 6 7 8 8 8 8 6 3 2 2 2 3 4 4 4 4 4 5 4 4 4
8 10 11 12 10 10 9 9 7 6 5 5 4 4 4 5 6 5 4 5 5 6 8 9 6 4 2 2 2 3 4 4 5 5 4 4 4 4
7 7 7 7 8 7 7 7 7 6 6 5 5 5 5 5 5 5 4 4 4 5 6 6 8 6 3 2 3 4 5 4 4 4 4 4 4 4
8 7 7 6 6 6 6 6 6 6 5 5 5 4 4 4 5 5 4 4 4 5 5 5 5 5 4 3 2 4 4 5 5 4 3 4 5 5
8 6 6 5 5 5 5 5 5 5 4 4 4 5 4 4 4 4 5 4 5 5 5 5 5 4 5 6 5 4 4 5 5 5 4 4 4 5
6 5 4 4 4 4 4 4 4 5 5 5 4 4 4 4 4 4 4 5 5 5 5 5 5 5 4 5 5 5 6 5 5 5 5 4 4 5
5 4 4 3 3 3 4 4 4 4 5 4 4 4 4 4 4 4 4 5 4 4 5 6 6 7 4 3 4 5 5 6 5 4 5 5 5 5
3 3 3 3 3 3 3 3 4 4 5 4 4 4 4 4 4 5 5 5 4 5 5 5 6 5 4 4 5 6 6 7 7 6 5 4 4 5
2 2 2 2 2 2 3 3 4 4 4 4 4 4 4 4 4 4 4 5 5 5 5 6 6 5 5 4 5 5 7 8 6 6 6 7 8 7
Wind_Direction
236 230 235 249 237 236 232 224 236 273 287 308 326 341 338 336 323 296 271 268 258 252 247 245 244 246 247 247 248 248 243 241 242 242 244 247 249 250
232 234 250 261 254 244 233 231 227 234 263 294 296 328 353 359 6 355 321 312 288 260 251 248 244 241 238 235 236 237 238 239 240 242 245 247 249 251
268 256 269 274 276 273 243 231 228 219 245 288 322 346 4 358 356 2 7 10 18 11 336 285 250 239 234 234 235 234 235 238 239 243 246 249 250 251
298 324 302 297 286 295 280 260 247 227 227 277 328 352 356 357 354 2 11 18 24 27 33 39 39 27 327 251 241 238 237 240 243 247 250 252 253 252
56 43 351 20 4 7 32 2 0 55 115 154 337 347 350 1 4 10 14 15 31 33 37 42 43 44 43 42 38 18 296 264 263 266 265 262 261 260
47 49 46 48 22 20 45 49 67 68 71 76 36 13 5 348 12 8 6 12 24 26 29 36 36 38 36 38 37 31 21 2 315 285 278 272 268 266
56 54 58 66 63 61 66 65 76 78 76 71 49 31 15 4 360 350 355 351 27 22 17 29 36 41 35 29 24 23 23 18 10 350 319 298 285 274
63 50 52 55 61 62 66 68 75 83 81 72 57 36 353 338 340 353 357 7 6 358 6 17 29 35 31 34 28 28 25 24 25 19 7 354 336 311
59 50 53 50 58 66 65 63 60 59 63 81 65 15 345 332 344 9 14 31 18 349 354 11 10 21 29 26 21 23 23 23 26 24 17 14 8 360
58 58 60 51 55 68 72 66 60 53 53 60 61 37 23 3 352 345 338 8 25 20 19 18 2 360 7 20 21 22 20 18 18 12 9 8 6 6
56 55 60 59 52 61 72 69 59 48 53 58 58 49 42 38 37 41 34 41 26 9 10 9 353 337 345 0 16 22 24 22 20 17 13 12 10 13
63 57 59 63 57 59 68 70 64 42 43 43 40 36 36 38 39 41 37 47 29 8 2 0 358 357 345 341 351 1 7 9 9 9 9 11 17 21
76 62 57 62 59 56 60 63 63 62 57 53 44 36 32 30 29 31 34 42 49 28 354 352 356 358 338 320 331 344 354 357 360 3 6 10 16 25
83 73 66 64 62 58 59 55 55 58 59 54 47 35 26 19 15 24 34 41 44 35 7 10 0 344 336 334 333 335 343 353 355 353 357 4 15 19
84 82 73 66 63 60 54 51 50 53 55 54 44 28 13 8 16 21 23 26 32 32 26 19 5 346 338 327 328 330 330 339 349 346 346 353 358 4
81 73 67 62 61 55 48 45 45 48 52 48 32 19 17 22 24 18 14 9 18 12 9 12 10 357 345 332 327 335 337 333 337 342 340 342 350 360
88 72 62 57 53 49 45 40 36 34 36 31 29 27 24 23 16 9 10 14 17 2 357 356 0 4 341 317 333 341 339 337 335 337 338 341 344 346
85 78 68 60 55 47 42 34 29 26 22 23 24 22 18 15 12 11 11 12 8 358 352 349 353 1 1 0 325 328 338 333 330 332 331 329 335 342
80 77 69 59 51 44 39 34 24 15 14 20 18 13 8 7 9 8 8 5 359 352 347 347 353 359 354 345 342 344 330 329 331 333 334 326 319 326
73 75 67 57 49 42 34 27 21 17 17 15 12 8 4 2 2 359 356 354 348 346 348 351 351 343 326 316 313 318 326 320 325 327 328 323 315 308
69 67 62 54 47 39 31 25 21 16 12 8 5 359 356 355 353 348 344 344 344 343 343 339 327 319 306 306 319 330 332 335 322 313 321 324 327 328
73 68 57 47 39 35 27 21 18 14 9 7 0 356 352 349 345 342 341 341 340 337 330 331 335 340 344 340 335 330 332 337 345 345 334 314 314 321
83 69 52 37 30 26 20 17 15 9 3 357 353 349 346 342 337 335 336 337 337 342 341 338 343 347 345 338 334 332 334 337 337 338 342 341 327 304
Height
1550 1550 1550 1550 1550 1550 1549 1549 1549 1547 1546 1545 1545 1544 1543 1542 1542 1541 1541 1541 1540 1540 1540 1540 1540 1540 1540 1540 1540 1540 1541 1541 1542 1542 1542 1543 1543 1543
1548 1547 1547 1547 1547 1546 1546 1546 1545 1545 1543 1542 1542 1541 1540 1539 1539 1538 1537 1537 1536 1536 1536 1535 1535 1535 1535 1535 1535 1535 1535 1536 1536 1536 1537 1537 1537 1537
1545 1545 1545 1544 1544 1543 1543 1542 1542 1542 1540 1540 1539 1538 1537 1537 1536 1535 1534 1533 1532 1532 1531 1531 1530 1530 1530 1530 1530 1530 1530 1530 1531 1531 1531 1531 1531 1531
1543 1543 1542 1542 1541 1541 1540 1540 1539 1538 1538 1537 1536 1536 1535 1534 1533 1532 1531 1530 1529 1528 1528 1527 1526 1526 1526 1525 1525 1525 1525 1525 1525 1525 1526 1526 1525 1525
1541 1541 1540 1540 1539 1538 1538 1537 1536 1535 1535 1534 1533 1533 1532 1531 1530 1529 1528 1527 1527 1526 1525 1524 1523 1522 1522 1521 1521 1521 1521 1520 1520 1520 1520 1520 1520 1519
1539 1539 1538 1538 1537 1536 1535 1535 1534 1534 1533 1532 1531 1530 1530 1529 1528 1527 1526 1525 1524 1523 1522 1521 1521 1520 1519 1518 1517 1517 1516 1515 1515 1515 1515 1514 1514 1514
1538 1537 1537 1536 1536 1535 1534 1533 1533 1532 1531 1530 1529 1529 1528 1527 1526 1525 1524 1523 1522 1521 1520 1519 1518 1517 1516 1515 1514 1513 1512 1511 1511 1510 1509 1509 1509 1508
1536 1536 1536 1535 1535 1534 1533 1532 1532 1531 1530 1529 1528 1527 1527 1526 1525 1524 1522 1521 1519 1520 1518 1517 1516 1515 1514 1513 1512 1510 1509 1508 1507 1506 1505 1504 1504 1503
1536 1536 1535 1535 1534 1534 1533 1532 1532 1531 1530 1530 1528 1527 1526 1526 1524 1523 1522 1520 1518 1518 1517 1515 1515 1513 1512 1511 1510 1509 1507 1506 1504 1503 1501 1501 1500 1499
1536 1536 1536 1535 1534 1534 1533 1533 1532 1531 1530 1529 1528 1527 1526 1526 1524 1523 1522 1520 1518 1517 1516 1515 1514 1513 1512 1510 1509 1507 1506 1504 1502 1500 1499 1498 1496 1495
1537 1537 1536 1536 1535 1535 1534 1533 1532 1532 1531 1530 1529 1528 1527 1526 1524 1523 1521 1520 1518 1517 1516 1515 1513 1512 1511 1510 1508 1506 1504 1502 1500 1499 1497 1495 1493 1492
1538 1538 1537 1537 1537 1536 1535 1534 1533 1532 1532 1531 1530 1529 1528 1526 1524 1523 1521 1520 1518 1517 1516 1515 1513 1512 1510 1509 1507 1505 1503 1501 1499 1497 1495 1493 1491 1489
1539 1539 1539 1538 1538 1537 1536 1535 1534 1534 1533 1532 1531 1529 1528 1526 1525 1523 1522 1520 1519 1517 1516 1514 1513 1511 1510 1508 1506 1504 1502 1499 1497 1495 1494 1492 1490 1488
1540 1540 1540 1540 1539 1538 1537 1536 1536 1535 1534 1532 1531 1530 1528 1527 1526 1524 1523 1521 1519 1518 1516 1515 1513 1511 1509 1507 1505 1503 1501 1499 1496 1494 1492 1490 1488 1487
1542 1542 1541 1541 1540 1539 1538 1538 1537 1535 1534 1533 1532 1531 1529 1528 1527 1525 1523 1522 1520 1518 1516 1514 1512 1510 1509 1507 1504 1502 1500 1498 1496 1493 1491 1489 1487 1485
1543 1543 1543 1542 1541 1541 1540 1539 1538 1537 1535 1534 1533 1532 1531 1529 1527 1525 1523 1521 1519 1517 1516 1514 1512 1510 1508 1506 1504 1501 1499 1497 1494 1492 1490 1488 1486 1484
1545 1544 1544 1543 1542 1542 1541 1540 1539 1538 1537 1535 1534 1533 1531 1529 1527 1525 1523 1521 1519 1517 1515 1513 1511 1509 1507 1505 1503 1501 1498 1496 1493 1491 1488 1486 1484 1483
1546 1545 1545 1545 1544 1543 1543 1542 1541 1539 1538 1537 1535 1533 1531 1529 1527 1525 1523 1521 1519 1517 1514 1512 1510 1507 1506 1504 1502 1499 1497 1494 1492 1490 1487 1485 1482 1481
1548 1547 1546 1546 1546 1545 1544 1543 1542 1540 1539 1537 1535 1534 1532 1530 1527 1525 1523 1521 1519 1517 1514 1512 1509 1507 1504 1502 1500 1499 1496 1493 1490 1488 1486 1483 1481 1479
1550 1549 1549 1548 1547 1547 1545 1544 1543 1541 1539 1537 1536 1534 1532 1530 1527 1525 1523 1520 1518 1516 1514 1512 1509 1506 1504 1502 1499 1497 1495 1492 1489 1486 1484 1481 1479 1477
1552 1551 1550 1550 1549 1548 1546 1545 1543 1541 1540 1538 1535 1533 1531 1529 1527 1524 1522 1520 1518 1515 1513 1511 1508 1507 1504 1501 1498 1495 1493 1491 1488 1485 1482 1479 1476 1474
1553 1553 1552 1551 1550 1548 1547 1545 1543 1541 1539 1537 1535 1533 1531 1528 1526 1524 1521 1519 1517 1514 1512 1510 1507 1505 1503 1500 1497 1494 1491 1489 1486 1484 1481 1478 1476 1472
1554 1553 1553 1551 1550 1549 1547 1545 1543 1541 1539 1537 1534 1532 1530 1527 1525 1523 1520 1518 1516 1513 1511 1508 1506 1503 1501 1498 1496 1493 1490 1487 1484 1482 1479 1477 1475 1472